Погода в Кайо-Коко

Куба     22°29′21″N   78°27′59″W
темп.,
°C
ветер,
м/с
пор.,
м/с
влажн.,
%
обл.,
%
осадки,
мм/ч
давл.,
гПа
погр.,
м
1 августа, вс
вс123:00+29в787811 0.2 1018824
02:00+29в78763 0.2 1017896
05:00+29вюв77750 0.3 1016827
08:00+29вюв77755 0.3 1018913
11:00+29вюв677733 0.1 1018907
14:00+30в66710 0.3 1018781
17:00+30всв77720 0.0 1017671
20:00+29в78774 0.0 1018643
2 августа, пн
пн223:00+29вюв78805 0.0 1018767
02:00+29вюв88815 0.1 1017778
05:00+29юв668189 1.0 1016622
08:00+28юв5583100 2.4 1017470
11:00+28вюв4482100 2.4 1018355
14:00+29вюв3478100 2.8 1017615
17:00+29в6577100 0.1 1016691
20:00+29в6676100 0.1 1016710
3 августа, вт
вт323:00+29вюв6674100 0.0 1017849
02:00+29вюв6776100 0.0 1016835
05:00+29вюв6775100 0.0 1015796
08:00+29вюв787788 1.1 1016932
11:00+29вюв8871100 0.1 10171125
14:00+29в676991 0.1 1016990
17:00+29всв667575 0.1 1015631
20:00+29в777426 0.3 1015805
4 августа, ср
ср423:00+29в7875100 0.1 1016923
02:00+29вюв777473 0.1 1016960
05:00+28в66758 0.1 1015963
08:00+28вюв677379 0.2 1016976
11:00+29вюв56715 0.1 10171012
14:00+29в66712 0.1 1016753
17:00+29в77745 0.5 1015466
20:00+29в55758 3.5 1016375
5 августа, чт
чт523:00+28вюв447317 5.4 1018179
02:00+29вюв5570100 7.9 1017498
05:00+28юв557611 1.5 1017408
08:00+28юв567496 2.7 1018522
11:00+29вюв55715 0.0 1019835
14:00+30в55725 0.0 1018825
17:00+29в77755 0.0 1017540
20:00+29в77757 0.4 1018601